owner,sensor,date,latitude,longitude,vertical_datum,mass_concentration_of_oxygen_in_sea_water,qcFlag 
LUMCON,ioos:station:LUMCON:wisl1:1,2019-04-01T00:00:00Z,29.1144,-90.1840,2.343,8.61,1111122 
LUMCON,ioos:station:LUMCON:wisl1:1,2019-04-01T00:15:00Z,29.1144,-90.1840,2.346,8.7,1111122 
LUMCON,ioos:station:LUMCON:wisl1:1,2019-04-01T00:30:00Z,29.1144,-90.1840,2.359,8.66,1111122 
LUMCON,ioos:station:LUMCON:wisl1:1,2019-04-01T00:45:00Z,29.1144,-90.1840,2.378,8.67,1111122 
LUMCON,ioos:station:LUMCON:wisl1:1,2019-04-01T01:00:00Z,29.1144,-90.1840,2.375,8.65,1111122 
LUMCON,ioos:station:LUMCON:wisl1:1,2019-04-01T01:15:00Z,29.1144,-90.1840,2.376,8.68,1111122 
LUMCON,ioos:station:LUMCON:wisl1:1,2019-04-01T01:30:00Z,29.1144,-90.1840,2.389,8.62,1111122 
LUMCON,ioos:station:LUMCON:wisl1:1,2019-04-01T01:45:00Z,29.1144,-90.1840,2.395,8.54,1111122 
LUMCON,ioos:station:LUMCON:wisl1:1,2019-04-01T02:00:00Z,29.1144,-90.1840,2.402,8.61,1111122 
LUMCON,ioos:station:LUMCON:wisl1:1,2019-04-01T02:15:00Z,29.1144,-90.1840,2.391,8.7,1111122 
LUMCON,ioos:station:LUMCON:wisl1:1,2019-04-01T02:30:00Z,29.1144,-90.1840,2.406,8.74,1111122 
LUMCON,ioos:station:LUMCON:wisl1:1,2019-04-01T02:45:00Z,29.1144,-90.1840,2.404,8.76,1111122 
LUMCON,ioos:station:LUMCON:wisl1:1,2019-04-01T03:00:00Z,29.1144,-90.1840,2.407,8.69,1111122 
LUMCON,ioos:station:LUMCON:wisl1:1,2019-04-01T03:15:00Z,29.1144,-90.1840,2.399,8.71,1111122 
LUMCON,ioos:station:LUMCON:wisl1:1,2019-04-01T03:30:00Z,29.1144,-90.1840,2.407,8.73,1111122 
LUMCON,ioos:station:LUMCON:wisl1:1,2019-04-01T03:45:00Z,29.1144,-90.1840,2.401,8.48,1111122 
LUMCON,ioos:station:LUMCON:wisl1:1,2019-04-01T04:00:00Z,29.1144,-90.1840,2.402,8.64,1111122 
LUMCON,ioos:station:LUMCON:wisl1:1,2019-04-01T04:15:00Z,29.1144,-90.1840,2.406,8.57,1111122 
LUMCON,ioos:station:LUMCON:wisl1:1,2019-04-01T04:30:00Z,29.1144,-90.1840,2.377,8.61,1111122 
LUMCON,ioos:station:LUMCON:wisl1:1,2019-04-01T04:45:00Z,29.1144,-90.1840,2.366,8.62,1111122 
LUMCON,ioos:station:LUMCON:wisl1:1,2019-04-01T05:00:00Z,29.1144,-90.1840,2.36,8.58,1111122 
LUMCON,ioos:station:LUMCON:wisl1:1,2019-04-01T05:15:00Z,29.1144,-90.1840,2.338,8.56,1111122 
LUMCON,ioos:station:LUMCON:wisl1:1,2019-04-01T05:30:00Z,29.1144,-90.1840,2.352,8.42,1111122 
LUMCON,ioos:station:LUMCON:wisl1:1,2019-04-01T05:45:00Z,29.1144,-90.1840,2.349,8.33,1111122 
LUMCON,ioos:station:LUMCON:wisl1:1,2019-04-01T06:00:00Z,29.1144,-90.1840,2.33,8.29,1111122 
LUMCON,ioos:station:LUMCON:wisl1:1,2019-04-01T06:15:00Z,29.1144,-90.1840,2.326,8.27,1111122 
LUMCON,ioos:station:LUMCON:wisl1:1,2019-04-01T06:30:00Z,29.1144,-90.1840,2.326,8.29,1111122 
LUMCON,ioos:station:LUMCON:wisl1:1,2019-04-01T06:45:00Z,29.1144,-90.1840,2.308,8.33,1111122 
LUMCON,ioos:station:LUMCON:wisl1:1,2019-04-01T07:00:00Z,29.1144,-90.1840,2.308,8.39,1111122 
LUMCON,ioos:station:LUMCON:wisl1:1,2019-04-01T07:15:00Z,29.1144,-90.1840,2.301,8.35,1111122 
LUMCON,ioos:station:LUMCON:wisl1:1,2019-04-01T07:30:00Z,29.1144,-90.1840,2.276,8.35,1111122 
LUMCON,ioos:station:LUMCON:wisl1:1,2019-04-01T07:45:00Z,29.1144,-90.1840,2.263,8.33,1111122 
LUMCON,ioos:station:LUMCON:wisl1:1,2019-04-01T08:00:00Z,29.1144,-90.1840,2.254,8.33,1111122 
LUMCON,ioos:station:LUMCON:wisl1:1,2019-04-01T08:15:00Z,29.1144,-90.1840,2.259,8.37,1111122 
LUMCON,ioos:station:LUMCON:wisl1:1,2019-04-01T08:30:00Z,29.1144,-90.1840,2.273,8.33,1111122 
LUMCON,ioos:station:LUMCON:wisl1:1,2019-04-01T08:45:00Z,29.1144,-90.1840,2.27,8.27,1111122 
LUMCON,ioos:station:LUMCON:wisl1:1,2019-04-01T09:00:00Z,29.1144,-90.1840,2.281,8.28,1111122 
LUMCON,ioos:station:LUMCON:wisl1:1,2019-04-01T09:15:00Z,29.1144,-90.1840,2.276,8.22,1111122 
LUMCON,ioos:station:LUMCON:wisl1:1,2019-04-01T09:30:00Z,29.1144,-90.1840,2.26,8.23,1111122 
LUMCON,ioos:station:LUMCON:wisl1:1,2019-04-01T09:45:00Z,29.1144,-90.1840,2.284,8.28,1111122 
LUMCON,ioos:station:LUMCON:wisl1:1,2019-04-01T10:00:00Z,29.1144,-90.1840,2.3,8.26,1111122 
LUMCON,ioos:station:LUMCON:wisl1:1,2019-04-01T10:15:00Z,29.1144,-90.1840,2.259,8.28,1111122 
LUMCON,ioos:station:LUMCON:wisl1:1,2019-04-01T10:30:00Z,29.1144,-90.1840,2.287,8.29,1111122 
LUMCON,ioos:station:LUMCON:wisl1:1,2019-04-01T10:45:00Z,29.1144,-90.1840,2.288,8.32,1111122 
LUMCON,ioos:station:LUMCON:wisl1:1,2019-04-01T11:00:00Z,29.1144,-90.1840,2.275,8.34,1111122 
LUMCON,ioos:station:LUMCON:wisl1:1,2019-04-01T11:15:00Z,29.1144,-90.1840,2.292,8.37,1111122 
LUMCON,ioos:station:LUMCON:wisl1:1,2019-04-01T11:30:00Z,29.1144,-90.1840,2.313,8.38,1111122 
LUMCON,ioos:station:LUMCON:wisl1:1,2019-04-01T11:45:00Z,29.1144,-90.1840,2.298,8.41,1111122 
LUMCON,ioos:station:LUMCON:wisl1:1,2019-04-01T12:00:00Z,29.1144,-90.1840,2.296,8.42,1111122 
LUMCON,ioos:station:LUMCON:wisl1:1,2019-04-01T12:15:00Z,29.1144,-90.1840,2.307,8.44,1111122 
LUMCON,ioos:station:LUMCON:wisl1:1,2019-04-01T12:30:00Z,29.1144,-90.1840,2.303,8.46,1111122 
LUMCON,ioos:station:LUMCON:wisl1:1,2019-04-01T12:45:00Z,29.1144,-90.1840,2.303,8.48,1111122 
LUMCON,ioos:station:LUMCON:wisl1:1,2019-04-01T13:00:00Z,29.1144,-90.1840,2.337,8.46,1111122 
LUMCON,ioos:station:LUMCON:wisl1:1,2019-04-01T13:15:00Z,29.1144,-90.1840,2.33,8.27,1111122 
LUMCON,ioos:station:LUMCON:wisl1:1,2019-04-01T13:30:00Z,29.1144,-90.1840,2.347,8.17,1111122 
LUMCON,ioos:station:LUMCON:wisl1:1,2019-04-01T13:45:00Z,29.1144,-90.1840,2.342,8.33,1111122 
LUMCON,ioos:station:LUMCON:wisl1:1,2019-04-01T14:00:00Z,29.1144,-90.1840,2.349,8.18,1111122 
LUMCON,ioos:station:LUMCON:wisl1:1,2019-04-01T14:15:00Z,29.1144,-90.1840,2.362,8.31,1111122 
LUMCON,ioos:station:LUMCON:wisl1:1,2019-04-01T14:30:00Z,29.1144,-90.1840,2.371,8.48,1111122 
LUMCON,ioos:station:LUMCON:wisl1:1,2019-04-01T14:45:00Z,29.1144,-90.1840,2.374,8.4,1111122 
LUMCON,ioos:station:LUMCON:wisl1:1,2019-04-01T15:00:00Z,29.1144,-90.1840,2.378,8.84,1111122 
LUMCON,ioos:station:LUMCON:wisl1:1,2019-04-01T15:15:00Z,29.1144,-90.1840,2.384,8.57,1111122 
LUMCON,ioos:station:LUMCON:wisl1:1,2019-04-01T15:30:00Z,29.1144,-90.1840,2.389,8.49,1111122 
LUMCON,ioos:station:LUMCON:wisl1:1,2019-04-01T15:45:00Z,29.1144,-90.1840,2.383,8.37,1111122 
LUMCON,ioos:station:LUMCON:wisl1:1,2019-04-01T16:00:00Z,29.1144,-90.1840,2.387,8.3,1111122 
LUMCON,ioos:station:LUMCON:wisl1:1,2019-04-01T16:15:00Z,29.1144,-90.1840,2.398,8.38,1111122 
LUMCON,ioos:station:LUMCON:wisl1:1,2019-04-01T16:30:00Z,29.1144,-90.1840,2.403,8.72,1111122 
LUMCON,ioos:station:LUMCON:wisl1:1,2019-04-01T16:45:00Z,29.1144,-90.1840,2.392,8.86,1111122 
LUMCON,ioos:station:LUMCON:wisl1:1,2019-04-01T17:00:00Z,29.1144,-90.1840,2.379,9.17,1111122 
LUMCON,ioos:station:LUMCON:wisl1:1,2019-04-01T17:15:00Z,29.1144,-90.1840,2.373,9.34,1111122 
LUMCON,ioos:station:LUMCON:wisl1:1,2019-04-01T17:30:00Z,29.1144,-90.1840,2.366,9.39,1111122 
LUMCON,ioos:station:LUMCON:wisl1:1,2019-04-01T17:45:00Z,29.1144,-90.1840,2.358,9.5,1111122 
LUMCON,ioos:station:LUMCON:wisl1:1,2019-04-01T18:00:00Z,29.1144,-90.1840,2.354,9.57,1111122 
LUMCON,ioos:station:LUMCON:wisl1:1,2019-04-01T18:15:00Z,29.1144,-90.1840,2.35,9.65,1111122 
LUMCON,ioos:station:LUMCON:wisl1:1,2019-04-01T18:30:00Z,29.1144,-90.1840,2.344,9.69,1111122 
LUMCON,ioos:station:LUMCON:wisl1:1,2019-04-01T18:45:00Z,29.1144,-90.1840,2.353,9.81,1111122 
LUMCON,ioos:station:LUMCON:wisl1:1,2019-04-01T19:00:00Z,29.1144,-90.1840,2.343,9.9,1111122 
LUMCON,ioos:station:LUMCON:wisl1:1,2019-04-01T19:15:00Z,29.1144,-90.1840,2.344,9.96,1111122 
LUMCON,ioos:station:LUMCON:wisl1:1,2019-04-01T19:30:00Z,29.1144,-90.1840,2.337,9.91,1111122 
LUMCON,ioos:station:LUMCON:wisl1:1,2019-04-01T19:45:00Z,29.1144,-90.1840,2.341,10.11,1111122 
LUMCON,ioos:station:LUMCON:wisl1:1,2019-04-01T20:00:00Z,29.1144,-90.1840,2.336,10.11,1111122 
LUMCON,ioos:station:LUMCON:wisl1:1,2019-04-01T20:15:00Z,29.1144,-90.1840,2.34,10.15,1111122 
LUMCON,ioos:station:LUMCON:wisl1:1,2019-04-01T20:30:00Z,29.1144,-90.1840,2.337,10.1,1111122 
LUMCON,ioos:station:LUMCON:wisl1:1,2019-04-01T20:45:00Z,29.1144,-90.1840,2.351,10.19,1111122 
LUMCON,ioos:station:LUMCON:wisl1:1,2019-04-01T21:00:00Z,29.1144,-90.1840,2.357,10.26,1111122 
LUMCON,ioos:station:LUMCON:wisl1:1,2019-04-01T21:15:00Z,29.1144,-90.1840,2.356,10.16,1111122 
LUMCON,ioos:station:LUMCON:wisl1:1,2019-04-01T21:30:00Z,29.1144,-90.1840,2.366,9.77,1111122 
LUMCON,ioos:station:LUMCON:wisl1:1,2019-04-01T21:45:00Z,29.1144,-90.1840,2.356,10.11,1111122 
LUMCON,ioos:station:LUMCON:wisl1:1,2019-04-01T22:00:00Z,29.1144,-90.1840,2.375,10.11,1111122 
LUMCON,ioos:station:LUMCON:wisl1:1,2019-04-01T22:15:00Z,29.1144,-90.1840,2.366,9.9,1111122 
LUMCON,ioos:station:LUMCON:wisl1:1,2019-04-01T22:30:00Z,29.1144,-90.1840,2.37,9.46,1111122 
LUMCON,ioos:station:LUMCON:wisl1:1,2019-04-01T22:45:00Z,29.1144,-90.1840,2.371,9.76,1111122 
LUMCON,ioos:station:LUMCON:wisl1:1,2019-04-01T23:00:00Z,29.1144,-90.1840,2.382,9.73,1111122 
LUMCON,ioos:station:LUMCON:wisl1:1,2019-04-01T23:15:00Z,29.1144,-90.1840,2.384,9.91,1111122 
LUMCON,ioos:station:LUMCON:wisl1:1,2019-04-01T23:30:00Z,29.1144,-90.1840,2.378,9.88,1111122 
LUMCON,ioos:station:LUMCON:wisl1:1,2019-04-01T23:45:00Z,29.1144,-90.1840,2.389,9.79,1111122 
LUMCON,ioos:station:LUMCON:wisl1:1,2019-04-02T00:00:00Z,29.1144,-90.1840,2.408,9.43,1111122 
LUMCON,ioos:station:LUMCON:wisl1:1,2019-04-02T00:15:00Z,29.1144,-90.1840,2.41,9.69,1111122 
LUMCON,ioos:station:LUMCON:wisl1:1,2019-04-02T00:30:00Z,29.1144,-90.1840,2.413,9.54,1111122 
LUMCON,ioos:station:LUMCON:wisl1:1,2019-04-02T00:45:00Z,29.1144,-90.1840,2.41,9.61,1111122 
LUMCON,ioos:station:LUMCON:wisl1:1,2019-04-02T01:00:00Z,29.1144,-90.1840,2.42,9.64,1111122 
LUMCON,ioos:station:LUMCON:wisl1:1,2019-04-02T01:15:00Z,29.1144,-90.1840,2.426,9.5,1111122 
LUMCON,ioos:station:LUMCON:wisl1:1,2019-04-02T01:30:00Z,29.1144,-90.1840,2.434,9.41,1111122 
LUMCON,ioos:station:LUMCON:wisl1:1,2019-04-02T01:45:00Z,29.1144,-90.1840,2.443,9.29,1111122 
LUMCON,ioos:station:LUMCON:wisl1:1,2019-04-02T02:00:00Z,29.1144,-90.1840,2.436,9.38,1111122 
LUMCON,ioos:station:LUMCON:wisl1:1,2019-04-02T02:15:00Z,29.1144,-90.1840,2.453,9.24,1111122 
LUMCON,ioos:station:LUMCON:wisl1:1,2019-04-02T02:30:00Z,29.1144,-90.1840,2.451,9.38,1111122 
LUMCON,ioos:station:LUMCON:wisl1:1,2019-04-02T02:45:00Z,29.1144,-90.1840,2.444,9.35,1111122 
LUMCON,ioos:station:LUMCON:wisl1:1,2019-04-02T03:00:00Z,29.1144,-90.1840,2.436,9.09,1111122 
LUMCON,ioos:station:LUMCON:wisl1:1,2019-04-02T03:15:00Z,29.1144,-90.1840,2.455,9.16,1111122 
LUMCON,ioos:station:LUMCON:wisl1:1,2019-04-02T03:30:00Z,29.1144,-90.1840,2.44,9.17,1111122 
LUMCON,ioos:station:LUMCON:wisl1:1,2019-04-02T03:45:00Z,29.1144,-90.1840,2.417,9.21,1111122 
LUMCON,ioos:station:LUMCON:wisl1:1,2019-04-02T04:00:00Z,29.1144,-90.1840,2.42,9.2,1111122 
LUMCON,ioos:station:LUMCON:wisl1:1,2019-04-02T04:15:00Z,29.1144,-90.1840,2.423,9.17,1111122 
LUMCON,ioos:station:LUMCON:wisl1:1,2019-04-02T04:30:00Z,29.1144,-90.1840,2.412,9.23,1111122 
LUMCON,ioos:station:LUMCON:wisl1:1,2019-04-02T04:45:00Z,29.1144,-90.1840,2.39,9.22,1111122 
LUMCON,ioos:station:LUMCON:wisl1:1,2019-04-02T05:00:00Z,29.1144,-90.1840,2.404,9.2,1111122 
LUMCON,ioos:station:LUMCON:wisl1:1,2019-04-02T05:15:00Z,29.1144,-90.1840,2.372,9.17,1111122 
LUMCON,ioos:station:LUMCON:wisl1:1,2019-04-02T05:30:00Z,29.1144,-90.1840,2.392,9.16,1111122 
LUMCON,ioos:station:LUMCON:wisl1:1,2019-04-02T05:45:00Z,29.1144,-90.1840,2.375,9.09,1111122 
LUMCON,ioos:station:LUMCON:wisl1:1,2019-04-02T06:00:00Z,29.1144,-90.1840,2.37,9.09,1111122 
LUMCON,ioos:station:LUMCON:wisl1:1,2019-04-02T06:15:00Z,29.1144,-90.1840,2.377,9.01,1111122 
LUMCON,ioos:station:LUMCON:wisl1:1,2019-04-02T06:30:00Z,29.1144,-90.1840,2.356,9.04,1111122 
LUMCON,ioos:station:LUMCON:wisl1:1,2019-04-02T06:45:00Z,29.1144,-90.1840,2.352,8.98,1111122 
LUMCON,ioos:station:LUMCON:wisl1:1,2019-04-02T07:00:00Z,29.1144,-90.1840,2.344,8.99,1111122 
LUMCON,ioos:station:LUMCON:wisl1:1,2019-04-02T07:15:00Z,29.1144,-90.1840,2.334,8.94,1111122 
LUMCON,ioos:station:LUMCON:wisl1:1,2019-04-02T07:30:00Z,29.1144,-90.1840,2.324,8.92,1111122 
LUMCON,ioos:station:LUMCON:wisl1:1,2019-04-02T07:45:00Z,29.1144,-90.1840,2.325,8.94,1111122 
LUMCON,ioos:station:LUMCON:wisl1:1,2019-04-02T08:00:00Z,29.1144,-90.1840,2.317,8.88,1111122 
LUMCON,ioos:station:LUMCON:wisl1:1,2019-04-02T08:15:00Z,29.1144,-90.1840,2.302,8.87,1111122 
LUMCON,ioos:station:LUMCON:wisl1:1,2019-04-02T08:30:00Z,29.1144,-90.1840,2.298,8.85,1111122 
LUMCON,ioos:station:LUMCON:wisl1:1,2019-04-02T08:45:00Z,29.1144,-90.1840,2.297,8.8,1111122 
LUMCON,ioos:station:LUMCON:wisl1:1,2019-04-02T09:00:00Z,29.1144,-90.1840,2.296,8.77,1111122 
LUMCON,ioos:station:LUMCON:wisl1:1,2019-04-02T09:15:00Z,29.1144,-90.1840,2.297,8.73,1111122 
LUMCON,ioos:station:LUMCON:wisl1:1,2019-04-02T09:30:00Z,29.1144,-90.1840,2.275,8.7,1111122 
LUMCON,ioos:station:LUMCON:wisl1:1,2019-04-02T09:45:00Z,29.1144,-90.1840,2.269,8.69,1111122 
LUMCON,ioos:station:LUMCON:wisl1:1,2019-04-02T10:00:00Z,29.1144,-90.1840,2.255,8.67,1111122 
LUMCON,ioos:station:LUMCON:wisl1:1,2019-04-02T10:15:00Z,29.1144,-90.1840,2.251,8.6,1111122 
LUMCON,ioos:station:LUMCON:wisl1:1,2019-04-02T10:30:00Z,29.1144,-90.1840,2.252,8.6,1111122 
LUMCON,ioos:station:LUMCON:wisl1:1,2019-04-02T10:45:00Z,29.1144,-90.1840,2.258,8.58,1111122 
LUMCON,ioos:station:LUMCON:wisl1:1,2019-04-02T11:00:00Z,29.1144,-90.1840,2.265,8.49,1111122 
LUMCON,ioos:station:LUMCON:wisl1:1,2019-04-02T11:15:00Z,29.1144,-90.1840,2.274,8.48,1111122 
LUMCON,ioos:station:LUMCON:wisl1:1,2019-04-02T11:30:00Z,29.1144,-90.1840,2.272,8.42,1111122 
LUMCON,ioos:station:LUMCON:wisl1:1,2019-04-02T11:45:00Z,29.1144,-90.1840,2.274,8.45,1111122 
LUMCON,ioos:station:LUMCON:wisl1:1,2019-04-02T12:00:00Z,29.1144,-90.1840,2.278,8.41,1111122 
LUMCON,ioos:station:LUMCON:wisl1:1,2019-04-02T12:15:00Z,29.1144,-90.1840,2.276,8.39,1111122 
LUMCON,ioos:station:LUMCON:wisl1:1,2019-04-02T12:30:00Z,29.1144,-90.1840,2.286,8.39,1111122 
LUMCON,ioos:station:LUMCON:wisl1:1,2019-04-02T12:45:00Z,29.1144,-90.1840,2.296,8.4,1111122 
LUMCON,ioos:station:LUMCON:wisl1:1,2019-04-02T13:00:00Z,29.1144,-90.1840,2.302,8.41,1111122 
LUMCON,ioos:station:LUMCON:wisl1:1,2019-04-02T13:15:00Z,29.1144,-90.1840,2.301,8.43,1111122 
LUMCON,ioos:station:LUMCON:wisl1:1,2019-04-02T13:30:00Z,29.1144,-90.1840,2.311,8.45,1111122 
LUMCON,ioos:station:LUMCON:wisl1:1,2019-04-02T13:45:00Z,29.1144,-90.1840,2.322,8.48,1111122 
LUMCON,ioos:station:LUMCON:wisl1:1,2019-04-02T14:00:00Z,29.1144,-90.1840,2.326,8.43,1111122 
LUMCON,ioos:station:LUMCON:wisl1:1,2019-04-02T14:15:00Z,29.1144,-90.1840,2.334,8.41,1111122 
LUMCON,ioos:station:LUMCON:wisl1:1,2019-04-02T14:30:00Z,29.1144,-90.1840,2.338,8.42,1111122 
LUMCON,ioos:station:LUMCON:wisl1:1,2019-04-02T14:45:00Z,29.1144,-90.1840,2.347,8.53,1111122 
LUMCON,ioos:station:LUMCON:wisl1:1,2019-04-02T15:00:00Z,29.1144,-90.1840,2.35,8.71,1111122 
LUMCON,ioos:station:LUMCON:wisl1:1,2019-04-02T15:15:00Z,29.1144,-90.1840,2.357,8.99,1111122 
LUMCON,ioos:station:LUMCON:wisl1:1,2019-04-02T15:30:00Z,29.1144,-90.1840,2.37,9.18,1111122 
LUMCON,ioos:station:LUMCON:wisl1:1,2019-04-02T15:45:00Z,29.1144,-90.1840,2.362,8.96,1111122 
LUMCON,ioos:station:LUMCON:wisl1:1,2019-04-02T16:00:00Z,29.1144,-90.1840,2.365,9.02,1111122 
LUMCON,ioos:station:LUMCON:wisl1:1,2019-04-02T16:15:00Z,29.1144,-90.1840,2.372,8.9,1111122 
LUMCON,ioos:station:LUMCON:wisl1:1,2019-04-02T16:30:00Z,29.1144,-90.1840,2.368,9.1,1111122 
LUMCON,ioos:station:LUMCON:wisl1:1,2019-04-02T16:45:00Z,29.1144,-90.1840,2.373,9.02,1111122 
LUMCON,ioos:station:LUMCON:wisl1:1,2019-04-02T17:00:00Z,29.1144,-90.1840,2.37,8.94,1111122 
LUMCON,ioos:station:LUMCON:wisl1:1,2019-04-02T17:15:00Z,29.1144,-90.1840,2.376,9.02,1111122 
LUMCON,ioos:station:LUMCON:wisl1:1,2019-04-02T17:30:00Z,29.1144,-90.1840,2.377,8.75,1111122 
LUMCON,ioos:station:LUMCON:wisl1:1,2019-04-02T17:45:00Z,29.1144,-90.1840,2.377,8.85,1111122 
LUMCON,ioos:station:LUMCON:wisl1:1,2019-04-02T18:00:00Z,29.1144,-90.1840,2.374,9.28,1111122 
LUMCON,ioos:station:LUMCON:wisl1:1,2019-04-02T18:15:00Z,29.1144,-90.1840,2.374,9.3,1111122 
LUMCON,ioos:station:LUMCON:wisl1:1,2019-04-02T18:30:00Z,29.1144,-90.1840,2.363,9.19,1111122 
LUMCON,ioos:station:LUMCON:wisl1:1,2019-04-02T18:45:00Z,29.1144,-90.1840,2.369,9.0,1111122 
LUMCON,ioos:station:LUMCON:wisl1:1,2019-04-02T19:00:00Z,29.1144,-90.1840,2.363,8.7,1111122 
LUMCON,ioos:station:LUMCON:wisl1:1,2019-04-02T19:15:00Z,29.1144,-90.1840,2.362,8.51,1111122 
LUMCON,ioos:station:LUMCON:wisl1:1,2019-04-02T19:30:00Z,29.1144,-90.1840,2.366,8.74,1111122 
LUMCON,ioos:station:LUMCON:wisl1:1,2019-04-02T19:45:00Z,29.1144,-90.1840,2.355,8.55,1111122 
LUMCON,ioos:station:LUMCON:wisl1:1,2019-04-02T20:00:00Z,29.1144,-90.1840,2.345,8.21,1111122 
LUMCON,ioos:station:LUMCON:wisl1:1,2019-04-02T20:15:00Z,29.1144,-90.1840,2.343,8.97,1111122 
LUMCON,ioos:station:LUMCON:wisl1:1,2019-04-02T20:30:00Z,29.1144,-90.1840,2.34,8.44,1111122 
LUMCON,ioos:station:LUMCON:wisl1:1,2019-04-02T20:45:00Z,29.1144,-90.1840,2.335,8.68,1111122 
LUMCON,ioos:station:LUMCON:wisl1:1,2019-04-02T21:00:00Z,29.1144,-90.1840,2.338,8.69,1111122 
LUMCON,ioos:station:LUMCON:wisl1:1,2019-04-02T21:15:00Z,29.1144,-90.1840,2.335,8.28,1111122 
LUMCON,ioos:station:LUMCON:wisl1:1,2019-04-02T21:30:00Z,29.1144,-90.1840,2.338,9.13,1111122 
LUMCON,ioos:station:LUMCON:wisl1:1,2019-04-02T21:45:00Z,29.1144,-90.1840,2.334,9.16,1111122 
LUMCON,ioos:station:LUMCON:wisl1:1,2019-04-02T22:00:00Z,29.1144,-90.1840,2.335,8.59,1111122 
LUMCON,ioos:station:LUMCON:wisl1:1,2019-04-02T22:15:00Z,29.1144,-90.1840,2.338,8.06,1111122 
LUMCON,ioos:station:LUMCON:wisl1:1,2019-04-02T22:30:00Z,29.1144,-90.1840,2.338,9.5,1111122 
LUMCON,ioos:station:LUMCON:wisl1:1,2019-04-02T22:45:00Z,29.1144,-90.1840,2.339,9.63,1111122 
LUMCON,ioos:station:LUMCON:wisl1:1,2019-04-02T23:00:00Z,29.1144,-90.1840,2.335,9.53,1111122 
LUMCON,ioos:station:LUMCON:wisl1:1,2019-04-02T23:15:00Z,29.1144,-90.1840,2.339,9.4,1111122 
LUMCON,ioos:station:LUMCON:wisl1:1,2019-04-02T23:30:00Z,29.1144,-90.1840,2.34,10.33,1111122 
LUMCON,ioos:station:LUMCON:wisl1:1,2019-04-02T23:45:00Z,29.1144,-90.1840,2.343,9.92,1111122 
LUMCON,ioos:station:LUMCON:wisl1:1,2019-04-03T00:00:00Z,29.1144,-90.1840,2.352,10.14,1111122 
LUMCON,ioos:station:LUMCON:wisl1:1,2019-04-03T00:15:00Z,29.1144,-90.1840,2.348,10.17,1111122 
LUMCON,ioos:station:LUMCON:wisl1:1,2019-04-03T00:30:00Z,29.1144,-90.1840,2.35,10.29,1111122 
LUMCON,ioos:station:LUMCON:wisl1:1,2019-04-03T00:45:00Z,29.1144,-90.1840,2.354,9.97,1111122 
LUMCON,ioos:station:LUMCON:wisl1:1,2019-04-03T01:00:00Z,29.1144,-90.1840,2.362,9.83,1111122 
LUMCON,ioos:station:LUMCON:wisl1:1,2019-04-03T01:15:00Z,29.1144,-90.1840,2.36,9.62,1111122 
LUMCON,ioos:station:LUMCON:wisl1:1,2019-04-03T01:30:00Z,29.1144,-90.1840,2.375,9.94,1111122 
LUMCON,ioos:station:LUMCON:wisl1:1,2019-04-03T01:45:00Z,29.1144,-90.1840,2.377,9.85,1111122 
LUMCON,ioos:station:LUMCON:wisl1:1,2019-04-03T02:00:00Z,29.1144,-90.1840,2.377,9.89,1111122 
LUMCON,ioos:station:LUMCON:wisl1:1,2019-04-03T02:15:00Z,29.1144,-90.1840,2.382,9.91,1111122 
LUMCON,ioos:station:LUMCON:wisl1:1,2019-04-03T02:30:00Z,29.1144,-90.1840,2.396,10.13,1111122 
LUMCON,ioos:station:LUMCON:wisl1:1,2019-04-03T02:45:00Z,29.1144,-90.1840,2.392,10.17,1111122 
LUMCON,ioos:station:LUMCON:wisl1:1,2019-04-03T03:00:00Z,29.1144,-90.1840,2.398,9.96,1111122 
LUMCON,ioos:station:LUMCON:wisl1:1,2019-04-03T03:15:00Z,29.1144,-90.1840,2.401,9.87,1111122 
LUMCON,ioos:station:LUMCON:wisl1:1,2019-04-03T03:30:00Z,29.1144,-90.1840,2.405,9.67,1111122 
LUMCON,ioos:station:LUMCON:wisl1:1,2019-04-03T03:45:00Z,29.1144,-90.1840,2.41,9.8,1111122 
LUMCON,ioos:station:LUMCON:wisl1:1,2019-04-03T04:00:00Z,29.1144,-90.1840,2.413,9.7,1111122 
LUMCON,ioos:station:LUMCON:wisl1:1,2019-04-03T04:15:00Z,29.1144,-90.1840,2.411,9.69,1111122 
LUMCON,ioos:station:LUMCON:wisl1:1,2019-04-03T04:30:00Z,29.1144,-90.1840,2.401,9.53,1111122 
LUMCON,ioos:station:LUMCON:wisl1:1,2019-04-03T04:45:00Z,29.1144,-90.1840,2.406,9.12,1111122 
LUMCON,ioos:station:LUMCON:wisl1:1,2019-04-03T05:00:00Z,29.1144,-90.1840,2.402,9.1,1111122 
LUMCON,ioos:station:LUMCON:wisl1:1,2019-04-03T05:15:00Z,29.1144,-90.1840,2.389,9.2,1111122 
LUMCON,ioos:station:LUMCON:wisl1:1,2019-04-03T05:30:00Z,29.1144,-90.1840,2.389,9.39,1111122 
LUMCON,ioos:station:LUMCON:wisl1:1,2019-04-03T05:45:00Z,29.1144,-90.1840,2.382,9.05,1111122 
LUMCON,ioos:station:LUMCON:wisl1:1,2019-04-03T06:00:00Z,29.1144,-90.1840,2.373,8.72,1111122 
LUMCON,ioos:station:LUMCON:wisl1:1,2019-04-03T06:15:00Z,29.1144,-90.1840,2.369,8.87,1111122 
LUMCON,ioos:station:LUMCON:wisl1:1,2019-04-03T06:30:00Z,29.1144,-90.1840,2.358,8.93,1111122 
LUMCON,ioos:station:LUMCON:wisl1:1,2019-04-03T06:45:00Z,29.1144,-90.1840,2.357,8.72,1111122 
LUMCON,ioos:station:LUMCON:wisl1:1,2019-04-03T07:00:00Z,29.1144,-90.1840,2.356,8.7,1111122 
LUMCON,ioos:station:LUMCON:wisl1:1,2019-04-03T07:15:00Z,29.1144,-90.1840,2.349,8.62,1111122 
LUMCON,ioos:station:LUMCON:wisl1:1,2019-04-03T07:30:00Z,29.1144,-90.1840,2.344,8.79,1111122 
LUMCON,ioos:station:LUMCON:wisl1:1,2019-04-03T07:45:00Z,29.1144,-90.1840,2.341,8.48,1111122 
LUMCON,ioos:station:LUMCON:wisl1:1,2019-04-03T08:00:00Z,29.1144,-90.1840,2.343,8.54,1111122 
LUMCON,ioos:station:LUMCON:wisl1:1,2019-04-03T16:30:00Z,29.1144,-90.1840,2.364,9.22,1111122 
LUMCON,ioos:station:LUMCON:wisl1:1,2019-04-03T16:45:00Z,29.1144,-90.1840,2.364,9.2,1111122 
LUMCON,ioos:station:LUMCON:wisl1:1,2019-04-03T17:00:00Z,29.1144,-90.1840,2.348,9.26,1111122 
LUMCON,ioos:station:LUMCON:wisl1:1,2019-04-03T17:15:00Z,29.1144,-90.1840,2.344,9.46,1111122 
LUMCON,ioos:station:LUMCON:wisl1:1,2019-04-03T17:30:00Z,29.1144,-90.1840,2.351,9.49,1111122 
LUMCON,ioos:station:LUMCON:wisl1:1,2019-04-03T17:45:00Z,29.1144,-90.1840,2.342,9.33,1111122 
LUMCON,ioos:station:LUMCON:wisl1:1,2019-04-03T18:00:00Z,29.1144,-90.1840,2.347,9.11,1111122 
LUMCON,ioos:station:LUMCON:wisl1:1,2019-04-03T18:15:00Z,29.1144,-90.1840,2.333,9.35,1111122 
LUMCON,ioos:station:LUMCON:wisl1:1,2019-04-03T18:30:00Z,29.1144,-90.1840,2.332,9.55,1111122 
LUMCON,ioos:station:LUMCON:wisl1:1,2019-04-03T18:45:00Z,29.1144,-90.1840,2.335,9.62,1111122 
LUMCON,ioos:station:LUMCON:wisl1:1,2019-04-03T19:00:00Z,29.1144,-90.1840,2.32,10.06,1111122 
LUMCON,ioos:station:LUMCON:wisl1:1,2019-04-03T19:15:00Z,29.1144,-90.1840,2.317,10.16,1111122 
LUMCON,ioos:station:LUMCON:wisl1:1,2019-04-03T19:30:00Z,29.1144,-90.1840,2.314,10.44,1111122 
LUMCON,ioos:station:LUMCON:wisl1:1,2019-04-03T19:45:00Z,29.1144,-90.1840,2.303,9.07,1111122 
LUMCON,ioos:station:LUMCON:wisl1:1,2019-04-03T20:00:00Z,29.1144,-90.1840,2.312,9.2,1111122 
LUMCON,ioos:station:LUMCON:wisl1:1,2019-04-03T20:15:00Z,29.1144,-90.1840,2.304,9.36,1111122 
LUMCON,ioos:station:LUMCON:wisl1:1,2019-04-03T20:30:00Z,29.1144,-90.1840,2.305,9.29,1111122 
LUMCON,ioos:station:LUMCON:wisl1:1,2019-04-03T20:45:00Z,29.1144,-90.1840,2.29,10.1,1111122 
LUMCON,ioos:station:LUMCON:wisl1:1,2019-04-03T21:00:00Z,29.1144,-90.1840,2.3,10.2,1111122 
LUMCON,ioos:station:LUMCON:wisl1:1,2019-04-03T21:15:00Z,29.1144,-90.1840,2.278,10.18,1111122 
LUMCON,ioos:station:LUMCON:wisl1:1,2019-04-03T21:30:00Z,29.1144,-90.1840,2.285,9.89,1111122 
LUMCON,ioos:station:LUMCON:wisl1:1,2019-04-03T21:45:00Z,29.1144,-90.1840,2.283,10.05,1111122 
LUMCON,ioos:station:LUMCON:wisl1:1,2019-04-03T22:00:00Z,29.1144,-90.1840,2.272,9.73,1111122 
LUMCON,ioos:station:LUMCON:wisl1:1,2019-04-03T22:15:00Z,29.1144,-90.1840,2.284,8.03,1111122 
LUMCON,ioos:station:LUMCON:wisl1:1,2019-04-03T22:30:00Z,29.1144,-90.1840,2.303,7.99,1111122 
LUMCON,ioos:station:LUMCON:wisl1:1,2019-04-03T22:45:00Z,29.1144,-90.1840,2.306,8.26,1111122 
LUMCON,ioos:station:LUMCON:wisl1:1,2019-04-03T23:00:00Z,29.1144,-90.1840,2.314,8.57,1111122 
LUMCON,ioos:station:LUMCON:wisl1:1,2019-04-03T23:15:00Z,29.1144,-90.1840,2.319,8.49,1111122 
LUMCON,ioos:station:LUMCON:wisl1:1,2019-04-03T23:30:00Z,29.1144,-90.1840,2.304,8.89,1111122 
LUMCON,ioos:station:LUMCON:wisl1:1,2019-04-03T23:45:00Z,29.1144,-90.1840,2.3,10.06,1111122 
LUMCON,ioos:station:LUMCON:wisl1:1,2019-04-04T00:00:00Z,29.1144,-90.1840,2.301,10.02,1111122 
LUMCON,ioos:station:LUMCON:wisl1:1,2019-04-04T00:15:00Z,29.1144,-90.1840,2.299,9.94,1111122 